Regional Weather Roundup
Issued by NWS Austin/San Antonio, TX

Current Version | Previous Version | Text Only | Print | Product List | Glossary On
Versions: 1 2 3 4 5 6 7 8 9 10 11 12 13 14 15 16 17 18 19 20 21 22 23 24 25 26 27 28 29 30 31 32 33 34 35 36 37 38 39 40 41 42 43 44 45 46 47 48 49 50
000
ASUS44 KEWX 040901
RWREWX
SOUTH TEXAS REGIONAL WEATHER ROUNDUP
NATIONAL WEATHER SERVICE AUSTIN/SAN ANTONIO TX
400 AM CDT TUE OCT 04 2022

NOTE: "FAIR" INDICATED FEW OR NO CLOUDS BELOW 12,000 FEET WITH NO
SIGNIFICANT WEATHER AND/OR OBSTRUCTIONS TO VISIBILITY.

* - THESE STATIONS ARE NOT NWS OR FAA STATIONS...AND ARE NOT SUBJECT
    TO NWS AND FAA QUALITY CONTROL.

TXZ171-172-183>190-041000-
TEXAS HILL COUNTRY AND EDWARDS PLATEAU

CITY           SKY/WX    TMP DP  RH WIND       PRES   REMARKS
JUNCTION       PTCLDY    53  44  71 NW5       30.12F
*LLANO         CLOUDY    54  41  62 CALM      30.09F
BURNET         CLEAR     63  42  46 NE5       30.12S
*HORSESHOE BAY CLEAR     54  41  60 CALM      30.10S
*LAGO VISTA      N/A    N/A N/A N/A N6        30.10S
*KERRVILLE     MOCLDY    57  46  67 CALM      30.11F
*FREDERICKSBRG CLEAR     56  42  59 NW3       30.12F
*ROCKSPRINGS   PTCLDY    61  50  67 SE5       30.16F
*BOERNE        MOCLDY    59  45  58 CALM      30.10F
HONDO          MOCLDY    65  47  52 CALM      30.08S
*UVALDE        MOCLDY    62  49  63 NE6       30.09F
DEL RIO        PTCLDY    65  53  65 E7        30.05F
*LAUGHLIN AFB  CLOUDY    63  53  70 E5        30.03F
*SPOFFORD      CLOUDY    65  51  60 NW3       30.05F
CARRIZO SPRGS  CLOUDY    66  50  55 CALM      30.06R
*FAITH RANCH   CLEAR     72  55  56 E5        30.07F
$$

TXZ173-191>194-202-209-217>225-228-041000-
CENTRAL AND SOUTH CENTRAL TEXAS

CITY           SKY/WX    TMP DP  RH WIND       PRES   REMARKS
GEORGETOWN     MOCLDY    56  45  66 W3        30.10S
*TAYLOR        MOCLDY    54  41  60 CALM      30.08S
AUSTIN/BERGSTM MOCLDY    62  51  67 CALM      30.07S
AUSTIN/MABRY   MOCLDY    63  47  55 CALM      30.08S
*PFLUGERVILLE  MOCLDY    64  45  48 N5        30.06F
SAN MARCOS     MOCLDY   N/A N/A N/A N3          N/A
NEW BRAUNFELS  MOCLDY    68  46  45 CALM      30.05F
*RANDOLPH AFB  MOCLDY    67  46  46 CALM      30.04F
*SEGUIN        CLOUDY    65  50  60 CALM      30.04F
SAN ANTONIO    MOCLDY    67  47  48 NW3       30.08S
STINSON FIELD  MOCLDY    67  51  56 CALM      30.05F
*KELLY FIELD   MOCLDY    66  49  55 CALM      30.04F
*PLEASANTON    MOCLDY    65  52  62 CALM      30.07F
*KENEDY        MOCLDY    65  54  68 CALM      30.07S
*LA GRANGE     NOT AVBL
*GIDDINGS      MOCLDY    67  46  46 CALM      30.07S
*GONZALES      MOCLDY    63  50  62 CALM      30.06S
$$

TXZ163>164-176>182-195>201-210>213-226-227-235-041000-
SOUTHEAST TEXAS

CITY           SKY/WX    TMP DP  RH WIND       PRES   REMARKS
COLLEGE STN    MOCLDY    71  50  47 E7        30.07F
*BRYAN         MOCLDY    63  48  59 NE3       30.10S
*CALDWELL      MOCLDY    60  51  70 CALM      30.08S
*CROCKETT      MOCLDY    55  52  88 CALM      30.09S
*BRENHAM       MOCLDY    66  51  58 CALM      30.08
HUNTSVILLE     PTCLDY    60  51  72 CALM      30.07F
CONROE         MOCLDY    62  52  69 CALM      30.08S
HOUSTON BUSH   MOCLDY    64  53  67 NE5       30.06S
HOUSTON HOBBY  CLOUDY    71  56  58 E9        30.04F
*HOUSTON SW AP NOT AVBL
PEARLAND       MOCLDY    67  58  72 CALM      30.06S
HOUSTON HOOKS  MOCLDY    67  52  58 E5        30.06F
ELLINGTON FLD  CLEAR     66  59  77 CALM      30.04F
SUGAR LAND     MOCLDY    65  55  70 N3        30.04F
*HOUSTON EXEC  MOCLDY    64  55  72 CALM      30.07S
*CLEVELAND MUN NOT AVBL
*WHARTON       CLOUDY    64  56  76 N5        30.06S
*COLUMBUS      FAIR      62  55  76 CALM      30.07S
*EAGLE LAKE    MOCLDY    63  53  68 MISG      30.06
$$

TXZ214>216-236>238-041000-
THE UPPER TEXAS COAST

CITY           SKY/WX    TMP DP  RH WIND       PRES   REMARKS
*ORANGE        PTCLDY    60  56  88 CALM      30.08S
PORT ARTHUR    PTCLDY    60  56  86 CALM      30.05F
GALVESTON      MOCLDY    71  67  87 NE5       30.05F
ANGLETON       PTCLDY    61  59  93 N6        30.05R
*BAY CITY      CLOUDY    62  59  92 CALM      30.04F
PALACIOS       CLOUDY    66  62  87 CALM      30.03F
$$

TXZ229>234-239>247-041000-
TEXAS COASTAL BEND AND RIO GRANDE PLAINS

CITY           SKY/WX    TMP DP  RH WIND       PRES   REMARKS
VICTORIA       CLOUDY    66  59  78 W3        30.05R
*BEEVILLE      CLOUDY    65  60  83 CALM      30.05F
ROCKPORT       MOCLDY    70  67  90 NW5       30.03F
*PORT ARANSAS  CLOUDY   N/A N/A N/A NW3       30.05F
*PORT LAVACA   CLOUDY    70  59  68 CALM      30.05S
*INGLESIDE     NOT AVBL
CORPUS CHRISTI CLOUDY    73  61  65 NW5       30.04S
CORPUS NAS     NOT AVBL
*ROBSTOWN      MOCLDY    70  61  75 MISG      30.05F
ALICE          CLOUDY    67  65  93 E3        30.02F
KINGSVILLE NAS NOT AVBL
COTULLA        CLOUDY    70  57  63 CALM      30.05F
LAREDO         CLOUDY    72  61  68 S6        30.05F
$$

TXZ248>255-041000-
DEEP SOUTH TEXAS

CITY           SKY/WX    TMP DP  RH WIND       PRES   REMARKS
BROWNSVILLE    MOCLDY    73  67  81 CALM      30.01F
PORT ISABEL    PTCLDY    73  67  81 NW3       30.01F
HARLINGEN      MOCLDY    69  66  90 NW5       30.02F
*HEBBRONVILLE  CLOUDY    68  63  83 CALM      30.07R
MCALLEN        CLOUDY    72  63  73 CALM      30.03F
*WESLACO       MOCLDY    70  65  83 CALM      30.03F
FALFURRIAS     CLOUDY    69  67  96 CALM      30.03S
EDINBURG       PTCLDY    69  66  88 CALM      30.04F
*ZAPATA        PTCLDY    73  65  74 CALM      30.05F
$$

TXZ213>215-236>238-242>244-246-247-251-254-255-041000-
CMAN STATIONS

STATION/POSITION TIME  TEMP    WIND        PRES    WAVE
                       AIR SEA DIR/SP/G            HT/PER
                 (UTC) (F)     (DEG/KT/KT) (MB)    (FT/S)
SEA RIM ST PARK  0800   70      50/  8/  9 1018.0
NORTH JETTY/GLS  0830   74 78   90/  7/  9 1016.1
EAGLE POINT      0830   73 76   70/  7/  9 1016.9
MORGANS POINT    0830   70 78   50/  8/ 10 1016.9
MISSION/ARANSAS  0800   75      60/  2     1018.0
PORT O`CONNOR    0824   72 84  260/  3/  3 1016.9
PORT ARANSAS     0800   79      80/  5/  6   N/A
BAFFIN BAY       0824   74 80  330/  4/  5 1017.3
PORT ISABEL      0824   79 82  100/  5/  6 1016.0
$$



USA.gov is the U.S. government's official web portal to all federal, state and local government web resources and services.